Time,TemperatureF,DewpointF,PressureIn,WindDirection,WindDirectionDegrees,WindSpeedMPH,WindSpeedGustMPH,Humidity,HourlyPrecipIn,Conditions,Clouds,dailyrainin,SolarRadiationWatts/m^2,SoftwareType,DateUTC
2013-04-12 00:00:00,29.6,26.8,29.89,SW,218,0.0,0.0,89,0.00,,,0.01,0,Wunderground v.1.15,2013-04-12 06:00:00,
2013-04-12 00:10:00,29.5,26.7,29.89,ESE,109,1.0,1.0,89,0.00,,,0.00,0,Wunderground v.1.15,2013-04-12 06:10:00,
2013-04-12 00:20:00,29.2,26.1,29.89,East,93,1.0,3.0,88,0.00,,,0.00,0,Wunderground v.1.15,2013-04-12 06:20:00,
2013-04-12 00:30:00,29.1,26.3,29.89,NE,55,0.0,0.0,89,0.00,,,0.01,0,Wunderground v.1.15,2013-04-12 06:30:00,
2013-04-12 00:40:00,29.2,26.4,29.89,NE,55,0.0,0.0,89,0.00,,,0.01,0,Wunderground v.1.15,2013-04-12 06:40:00,
2013-04-12 00:50:00,29.0,26.2,29.89,NE,55,0.0,0.0,89,0.00,,,0.01,0,Wunderground v.1.15,2013-04-12 06:50:00,
2013-04-12 01:00:00,28.5,25.7,29.89,NE,55,0.0,0.0,89,0.00,,,0.01,0,Wunderground v.1.15,2013-04-12 07:00:00,
2013-04-12 01:10:00,28.4,25.6,29.89,NE,55,0.0,0.0,89,0.00,,,0.01,0,Wunderground v.1.15,2013-04-12 07:10:00,
2013-04-12 01:20:00,27.9,25.1,29.89,NE,55,0.0,0.0,89,0.00,,,0.01,0,Wunderground v.1.15,2013-04-12 07:20:00,
2013-04-12 01:30:00,27.8,25.0,29.89,NE,56,1.0,1.0,89,0.00,,,0.01,0,Wunderground v.1.15,2013-04-12 07:30:00,
2013-04-12 01:40:00,27.6,24.8,29.88,NE,56,0.0,0.0,89,0.00,,,0.01,0,Wunderground v.1.15,2013-04-12 07:40:00,
2013-04-12 01:50:00,27.6,25.1,29.88,NE,56,0.0,0.0,90,0.00,,,0.01,0,Wunderground v.1.15,2013-04-12 07:50:00,
2013-04-12 02:00:00,27.6,25.1,29.88,NE,56,0.0,0.0,90,0.00,,,0.01,0,Wunderground v.1.15,2013-04-12 08:00:00,
2013-04-12 02:10:00,27.8,25.2,29.87,NE,56,0.0,0.0,90,0.00,,,0.01,0,Wunderground v.1.15,2013-04-12 08:10:00,
2013-04-12 02:20:00,27.7,24.9,29.87,ENE,57,0.0,0.0,89,0.00,,,0.01,0,Wunderground v.1.15,2013-04-12 08:20:00,
2013-04-12 02:30:00,27.6,24.8,29.86,East,93,1.0,2.0,89,0.00,,,0.01,0,Wunderground v.1.15,2013-04-12 08:30:00,
2013-04-12 02:40:00,27.3,24.5,29.86,East,93,0.0,0.0,89,0.00,,,0.01,0,Wunderground v.1.15,2013-04-12 08:40:00,
2013-04-12 02:50:00,26.8,23.7,29.86,East,91,0.0,0.0,88,0.00,,,0.01,0,Wunderground v.1.15,2013-04-12 08:50:00,
2013-04-12 03:00:00,26.7,23.6,29.86,NNE,24,1.0,1.0,88,0.00,,,0.01,0,Wunderground v.1.15,2013-04-12 09:00:00,
2013-04-12 03:10:00,26.6,23.5,29.86,NNE,24,0.0,0.0,88,0.00,,,0.01,0,Wunderground v.1.15,2013-04-12 09:10:00,
2013-04-12 03:20:00,26.3,23.2,29.86,NNE,24,0.0,0.0,88,0.00,,,0.01,0,Wunderground v.1.15,2013-04-12 09:20:00,
2013-04-12 03:31:00,25.9,22.8,29.86,NNE,24,0.0,0.0,88,0.00,,,0.01,0,Wunderground v.1.15,2013-04-12 09:31:00,
2013-04-12 03:40:00,25.7,22.6,29.86,NNE,24,0.0,0.0,88,0.00,,,0.01,0,Wunderground v.1.15,2013-04-12 09:40:00,
2013-04-12 03:50:00,25.7,22.6,29.87,WSW,252,1.0,2.0,88,0.00,,,0.01,0,Wunderground v.1.15,2013-04-12 09:50:00,
2013-04-12 04:00:00,26.1,22.8,29.87,SSW,206,2.0,2.0,87,0.00,,,0.01,0,Wunderground v.1.15,2013-04-12 10:00:00,
2013-04-12 04:10:00,26.3,22.7,29.87,WSW,239,3.0,3.0,86,0.00,,,0.01,0,Wunderground v.1.15,2013-04-12 10:10:00,
2013-04-12 04:20:00,26.9,22.7,29.87,SW,222,4.0,4.0,84,0.00,,,0.01,0,Wunderground v.1.15,2013-04-12 10:20:00,
2013-04-12 04:30:00,27.1,22.6,29.87,SSW,205,2.0,2.0,83,0.00,,,0.01,0,Wunderground v.1.15,2013-04-12 10:30:00,
2013-04-12 04:40:00,27.0,21.9,29.87,SSW,198,3.0,3.0,81,0.00,,,0.01,0,Wunderground v.1.15,2013-04-12 10:40:00,
2013-04-12 04:50:00,27.0,21.9,29.87,SSW,203,1.0,2.0,81,0.00,,,0.01,0,Wunderground v.1.15,2013-04-12 10:50:00,
2013-04-12 05:00:00,26.6,21.3,29.86,SSW,203,0.0,0.0,80,0.00,,,0.01,0,Wunderground v.1.15,2013-04-12 11:00:00,
2013-04-12 05:10:00,25.9,20.9,29.87,WSW,256,1.0,1.0,81,0.00,,,0.01,0,Wunderground v.1.15,2013-04-12 11:10:00,
2013-04-12 05:21:00,25.4,21.2,29.86,WSW,256,0.0,0.0,84,0.00,,,0.01,0,Wunderground v.1.15,2013-04-12 11:21:00,
2013-04-12 05:30:00,25.2,21.0,29.87,WSW,257,0.0,3.0,84,0.00,,,0.01,0,Wunderground v.1.15,2013-04-12 11:30:00,
2013-04-12 05:40:00,25.1,20.7,29.87,WSW,257,1.0,1.0,83,0.00,,,0.01,0,Wunderground v.1.15,2013-04-12 11:40:00,
2013-04-12 05:50:00,25.1,20.9,29.86,WSW,257,0.0,2.0,84,0.00,,,0.01,0,Wunderground v.1.15,2013-04-12 11:50:00,
2013-04-12 06:00:00,25.2,21.3,29.86,WNW,302,2.0,2.0,85,0.00,,,0.01,0,Wunderground v.1.15,2013-04-12 12:00:00,
2013-04-12 06:11:00,25.4,21.5,29.86,WNW,302,0.0,4.0,85,0.00,,,0.01,0,Wunderground v.1.15,2013-04-12 12:11:00,
2013-04-12 06:20:00,25.3,21.4,29.85,WNW,302,1.0,4.0,85,0.00,,,0.01,0,Wunderground v.1.15,2013-04-12 12:20:00,
2013-04-12 06:30:00,25.2,21.0,29.86,NW,315,0.0,3.0,84,0.00,,,0.01,0,Wunderground v.1.15,2013-04-12 12:30:00,
2013-04-12 06:40:00,25.1,20.9,29.86,NNW,343,1.0,1.0,84,0.00,,,0.01,0,Wunderground v.1.15,2013-04-12 12:40:00,
2013-04-12 06:50:00,25.1,21.2,29.86,NNW,343,0.0,0.0,85,0.00,,,0.01,9,Wunderground v.1.15,2013-04-12 12:50:00,
2013-04-12 07:00:00,25.3,21.4,29.86,NNW,343,0.0,0.0,85,0.00,,,0.01,12,Wunderground v.1.15,2013-04-12 13:00:00,
2013-04-12 07:10:00,25.7,21.8,29.86,NNW,343,0.0,0.0,85,0.00,,,0.01,12,Wunderground v.1.15,2013-04-12 13:10:00,
2013-04-12 07:20:00,26.1,22.5,29.86,NNW,343,0.0,3.0,86,0.00,,,0.01,33,Wunderground v.1.15,2013-04-12 13:20:00,
2013-04-12 07:30:00,27.1,23.2,29.86,East,99,1.0,2.0,85,0.00,,,0.01,79,Wunderground v.1.15,2013-04-12 13:30:00,
2013-04-12 07:40:00,28.5,23.7,29.86,SE,126,1.0,1.0,82,0.00,,,0.01,125,Wunderground v.1.15,2013-04-12 13:40:00,
2013-04-12 07:50:00,30.3,24.6,29.86,ESE,113,0.0,1.0,79,0.00,,,0.01,165,Wunderground v.1.15,2013-04-12 13:50:00,
2013-04-12 08:00:00,31.6,24.6,29.86,South,183,2.0,5.0,75,0.00,,,0.01,255,Wunderground v.1.15,2013-04-12 14:00:00,
2013-04-12 08:10:00,31.6,24.3,29.86,SE,142,3.0,8.0,74,0.00,,,0.01,223,Wunderground v.1.15,2013-04-12 14:10:00,
2013-04-12 08:30:00,31.5,24.5,29.85,ENE,78,8.0,8.0,75,0.00,,,0.01,420,Wunderground v.1.15,2013-04-12 14:30:00,
2013-04-12 08:41:00,32.0,25.0,29.85,ESE,103,9.0,9.0,75,0.00,,,0.01,336,Wunderground v.1.15,2013-04-12 14:41:00,
2013-04-12 08:50:00,32.2,24.8,29.84,ESE,109,7.0,9.0,74,0.00,,,0.01,378,Wunderground v.1.15,2013-04-12 14:50:00,
2013-04-12 09:00:00,33.4,26.0,29.84,North,349,8.0,10.0,74,0.00,,,0.01,373,Wunderground v.1.15,2013-04-12 15:00:00,
2013-04-12 09:10:00,33.9,24.8,29.85,SSE,157,8.0,9.0,69,0.00,,,0.01,457,Wunderground v.1.15,2013-04-12 15:10:00,
2013-04-12 09:20:00,34.1,25.7,29.86,WSW,238,9.0,9.0,71,0.00,,,0.01,538,Wunderground v.1.15,2013-04-12 15:20:00,
2013-04-12 09:30:00,34.4,25.6,29.86,NW,308,8.0,9.0,70,0.00,,,0.01,404,Wunderground v.1.15,2013-04-12 15:30:00,
2013-04-12 09:40:00,34.0,25.9,29.87,WSW,252,6.0,6.0,72,0.00,,,0.01,563,Wunderground v.1.15,2013-04-12 15:40:00,
2013-04-12 09:50:00,34.5,25.4,29.86,NNE,28,10.0,14.0,69,0.00,,,0.01,631,Wunderground v.1.15,2013-04-12 15:50:00,
2013-04-12 10:00:00,35.7,25.8,29.87,SSW,196,9.0,9.0,67,0.00,,,0.01,838,Wunderground v.1.15,2013-04-12 16:00:00,
2013-04-12 10:10:00,35.6,25.4,29.89,NW,310,9.0,9.0,66,0.00,,,0.01,232,Wunderground v.1.15,2013-04-12 16:10:00,
2013-04-12 10:20:00,34.0,25.9,29.90,West,281,7.0,7.0,72,0.00,,,0.01,585,Wunderground v.1.15,2013-04-12 16:20:00,
2013-04-12 10:30:00,35.5,25.3,29.90,WNW,294,11.0,11.0,66,0.00,,,0.01,800,Wunderground v.1.15,2013-04-12 16:30:00,
2013-04-12 10:40:00,36.2,25.2,29.90,West,264,11.0,11.0,64,0.00,,,0.01,765,Wunderground v.1.15,2013-04-12 16:40:00,
2013-04-12 10:50:00,36.8,24.2,29.90,West,263,12.0,12.0,60,0.00,,,0.01,795,Wunderground v.1.15,2013-04-12 16:50:00,
2013-04-12 11:00:00,36.5,24.3,29.90,SW,236,12.0,17.0,61,0.00,,,0.01,870,Wunderground v.1.15,2013-04-12 17:00:00,
2013-04-12 11:10:00,35.7,24.7,29.92,NW,313,14.0,14.0,64,0.00,,,0.01,531,Wunderground v.1.15,2013-04-12 17:10:00,
2013-04-12 11:20:00,35.6,24.2,29.92,NNW,333,13.0,13.0,63,0.00,,,0.01,881,Wunderground v.1.15,2013-04-12 17:20:00,
2013-04-12 11:30:00,36.7,22.9,29.91,North,350,13.0,13.0,57,0.00,,,0.01,909,Wunderground v.1.15,2013-04-12 17:30:00,
2013-04-12 11:40:00,37.1,23.7,29.91,NNW,334,15.0,18.0,58,0.00,,,0.01,731,Wunderground v.1.15,2013-04-12 17:40:00,
2013-04-12 11:50:00,37.4,23.1,29.92,WNW,291,13.0,17.0,56,0.00,,,0.01,925,Wunderground v.1.15,2013-04-12 17:50:00,
2013-04-12 12:00:00,36.1,25.5,29.93,SW,228,11.0,17.0,65,0.00,,,0.01,809,Wunderground v.1.15,2013-04-12 18:00:00,
2013-04-12 12:10:00,35.8,27.0,29.93,NW,313,6.0,6.0,70,0.00,,,0.01,496,Wunderground v.1.15,2013-04-12 18:10:00,
2013-04-12 12:20:00,36.4,23.8,29.93,West,265,9.0,9.0,60,0.00,,,0.01,995,Wunderground v.1.15,2013-04-12 18:20:00,
2013-04-12 13:30:00,38.2,23.4,29.93,SW,225,10.0,10.0,55,0.00,,,0.01,974,Wunderground v.1.15,2013-04-12 19:30:00,
2013-04-12 13:40:00,38.6,20.6,29.93,NW,307,8.0,12.0,48,0.00,,,0.01,972,Wunderground v.1.15,2013-04-12 19:40:00,
2013-04-12 14:00:00,38.7,20.2,29.94,WNW,292,14.0,14.0,47,0.00,,,0.01,949,Wunderground v.1.15,2013-04-12 20:00:00,
2013-04-12 14:10:00,39.5,20.4,29.94,WSW,240,9.0,9.0,46,0.00,,,0.01,956,Wunderground v.1.15,2013-04-12 20:10:00,
2013-04-12 14:20:00,39.3,22.7,29.95,WNW,298,13.0,17.0,51,0.00,,,0.01,916,Wunderground v.1.15,2013-04-12 20:20:00,
2013-04-12 14:30:00,39.5,19.9,29.94,NNW,329,11.0,11.0,45,0.00,,,0.01,900,Wunderground v.1.15,2013-04-12 20:30:00,
2013-04-12 14:40:00,40.5,20.8,29.95,WNW,288,13.0,17.0,45,0.00,,,0.01,884,Wunderground v.1.15,2013-04-12 20:40:00,
2013-04-12 14:50:00,40.0,19.3,29.94,WSW,255,12.0,15.0,43,0.00,,,0.01,863,Wunderground v.1.15,2013-04-12 20:50:00,
2013-04-12 15:00:00,39.7,19.0,29.94,NW,311,14.0,24.0,43,0.00,,,0.01,846,Wunderground v.1.15,2013-04-12 21:00:00,
2013-04-12 15:10:00,39.5,17.7,29.94,WNW,303,20.0,29.0,41,0.00,,,0.01,814,Wunderground v.1.15,2013-04-12 21:10:00,
2013-04-12 15:20:00,38.4,21.8,29.94,WNW,294,18.0,20.0,51,0.00,,,0.01,798,Wunderground v.1.15,2013-04-12 21:20:00,
2013-04-12 15:31:00,38.5,21.5,29.94,North,360,15.0,15.0,50,0.00,,,0.01,770,Wunderground v.1.15,2013-04-12 21:31:00,
2013-04-12 15:40:00,40.1,20.4,29.93,NW,323,14.0,17.0,45,0.00,,,0.01,754,Wunderground v.1.15,2013-04-12 21:40:00,
2013-04-12 15:50:00,40.6,19.3,29.93,SW,229,15.0,15.0,42,0.00,,,0.01,731,Wunderground v.1.15,2013-04-12 21:50:00,
2013-04-12 16:10:00,41.4,16.4,29.92,NW,326,16.0,16.0,36,0.00,,,0.01,671,Wunderground v.1.15,2013-04-12 22:10:00,
2013-04-12 16:30:00,42.5,13.9,29.92,WSW,257,11.0,13.0,31,0.00,,,0.01,570,Wunderground v.1.15,2013-04-12 22:30:00,
2013-04-12 16:40:00,42.1,15.7,29.92,NNW,338,13.0,19.0,34,0.00,,,0.01,577,Wunderground v.1.15,2013-04-12 22:40:00,
2013-04-12 17:00:00,41.9,16.2,29.91,West,277,11.0,11.0,35,0.00,,,0.01,508,Wunderground v.1.15,2013-04-12 23:00:00,
2013-04-12 17:11:00,43.0,17.8,29.91,NW,319,10.0,10.0,36,0.00,,,0.01,478,Wunderground v.1.15,2013-04-12 23:11:00,
2013-04-12 17:20:00,42.7,18.2,29.91,NNW,338,5.0,7.0,37,0.00,,,0.01,438,Wunderground v.1.15,2013-04-12 23:20:00,
2013-04-12 17:30:00,42.6,18.1,29.91,SW,217,5.0,6.0,37,0.00,,,0.01,380,Wunderground v.1.15,2013-04-12 23:30:00,
2013-04-12 17:40:00,41.4,17.7,29.91,ENE,67,6.0,9.0,38,0.00,,,0.01,287,Wunderground v.1.15,2013-04-12 23:40:00,
2013-04-12 17:50:00,41.6,19.0,29.91,NNW,342,4.0,5.0,40,0.00,,,0.01,271,Wunderground v.1.15,2013-04-12 23:50:00,
2013-04-12 18:00:00,41.3,18.8,29.91,NW,324,2.0,4.0,40,0.00,,,0.01,209,Wunderground v.1.15,2013-04-13 00:00:00,
2013-04-12 18:10:00,40.7,18.8,29.91,North,355,2.0,4.0,41,0.00,,,0.01,79,Wunderground v.1.15,2013-04-13 00:10:00,
2013-04-12 18:20:00,39.8,18.5,29.90,NE,56,3.0,5.0,42,0.00,,,0.01,33,Wunderground v.1.15,2013-04-13 00:20:00,
2013-04-12 18:30:00,39.3,18.1,29.90,NNE,21,4.0,4.0,42,0.00,,,0.01,62,Wunderground v.1.15,2013-04-13 00:30:00,
2013-04-12 18:40:00,39.0,18.9,29.91,ESE,121,2.0,4.0,44,0.00,,,0.01,70,Wunderground v.1.15,2013-04-13 00:40:00,
2013-04-12 18:50:00,38.7,19.2,29.91,SSW,200,5.0,5.0,45,0.00,,,0.01,32,Wunderground v.1.15,2013-04-13 00:50:00,
2013-04-12 19:00:00,38.7,18.1,29.90,SE,146,3.0,9.0,43,0.00,,,0.01,58,Wunderground v.1.15,2013-04-13 01:00:00,
2013-04-12 19:10:00,38.7,17.0,29.90,West,265,4.0,4.0,41,0.00,,,0.01,18,Wunderground v.1.15,2013-04-13 01:10:00,
2013-04-12 19:21:00,38.6,19.1,29.89,West,269,1.0,1.0,45,0.00,,,0.01,12,Wunderground v.1.15,2013-04-13 01:21:00,
2013-04-12 19:30:00,37.8,17.8,29.89,SSE,163,1.0,1.0,44,0.00,,,0.01,7,Wunderground v.1.15,2013-04-13 01:30:00,
2013-04-12 19:40:00,37.4,16.4,29.89,ESE,109,3.0,3.0,42,0.00,,,0.01,0,Wunderground v.1.15,2013-04-13 01:40:00,
2013-04-12 20:00:00,36.5,16.6,29.89,South,173,1.0,1.0,44,0.00,,,0.01,0,Wunderground v.1.15,2013-04-13 02:00:00,
2013-04-12 20:10:00,35.2,16.5,29.89,NW,315,1.0,3.0,46,0.00,,,0.01,0,Wunderground v.1.15,2013-04-13 02:10:00,
2013-04-12 20:20:00,33.9,19.4,29.90,NW,308,1.0,6.0,55,0.00,,,0.01,0,Wunderground v.1.15,2013-04-13 02:20:00,
2013-04-12 20:30:00,32.3,17.9,29.90,ESE,109,2.0,4.0,55,0.00,,,0.01,0,Wunderground v.1.15,2013-04-13 02:30:00,
2013-04-12 20:40:00,32.5,18.5,29.90,West,270,1.0,3.0,56,0.00,,,0.01,0,Wunderground v.1.15,2013-04-13 02:40:00,
2013-04-12 20:50:00,31.0,16.3,29.90,NW,309,1.0,1.0,54,0.00,,,0.01,0,Wunderground v.1.15,2013-04-13 02:50:00,
2013-04-12 21:00:00,30.7,15.6,29.90,ENE,71,2.0,2.0,53,0.00,,,0.01,0,Wunderground v.1.15,2013-04-13 03:00:00,
2013-04-12 21:10:00,30.5,18.6,29.91,West,281,1.0,2.0,61,0.00,,,0.01,0,Wunderground v.1.15,2013-04-13 03:10:00,
2013-04-12 21:20:00,30.5,16.2,29.90,NE,38,2.0,3.0,55,0.00,,,0.01,0,Wunderground v.1.15,2013-04-13 03:20:00,
2013-04-12 21:30:00,30.6,16.3,29.91,WNW,282,1.0,1.0,55,0.00,,,0.01,0,Wunderground v.1.15,2013-04-13 03:30:00,
2013-04-12 21:40:00,30.7,18.1,29.91,WNW,292,1.0,1.0,59,0.00,,,0.01,0,Wunderground v.1.15,2013-04-13 03:40:00,
2013-04-12 21:50:00,30.2,18.4,29.91,WNW,292,1.0,1.0,61,0.00,,,0.01,0,Wunderground v.1.15,2013-04-13 03:50:00,
2013-04-12 22:00:00,29.8,16.8,29.91,WNW,290,1.0,3.0,58,0.00,,,0.01,0,Wunderground v.1.15,2013-04-13 04:00:00,
2013-04-12 22:10:00,29.8,17.2,29.90,WNW,288,1.0,1.0,59,0.00,,,0.01,0,Wunderground v.1.15,2013-04-13 04:10:00,
2013-04-12 22:20:00,30.0,18.2,29.90,West,281,1.0,4.0,61,0.00,,,0.01,0,Wunderground v.1.15,2013-04-13 04:20:00,
2013-04-12 22:30:00,30.6,14.6,29.90,ENE,66,3.0,3.0,51,0.00,,,0.01,0,Wunderground v.1.15,2013-04-13 04:30:00,
2013-04-12 22:40:00,30.4,17.8,29.90,WNW,290,1.0,1.0,59,0.00,,,0.01,0,Wunderground v.1.15,2013-04-13 04:40:00,
2013-04-12 22:50:00,29.2,15.4,29.90,SW,216,1.0,1.0,56,0.00,,,0.01,0,Wunderground v.1.15,2013-04-13 04:50:00,
2013-04-12 23:00:00,28.7,16.2,29.89,West,281,2.0,2.0,59,0.00,,,0.01,0,Wunderground v.1.15,2013-04-13 05:00:00,
2013-04-12 23:11:00,28.4,16.3,29.89,West,277,1.0,1.0,60,0.00,,,0.01,0,Wunderground v.1.15,2013-04-13 05:11:00,
2013-04-12 23:20:00,28.5,17.1,29.89,WNW,300,1.0,1.0,62,0.00,,,0.01,0,Wunderground v.1.15,2013-04-13 05:20:00,
2013-04-12 23:30:00,27.6,17.4,29.88,WNW,301,1.0,1.0,65,0.00,,,0.01,0,Wunderground v.1.15,2013-04-13 05:30:00,
2013-04-12 23:40:00,27.2,17.7,29.89,WNW,302,1.0,1.0,67,0.00,,,0.01,0,Wunderground v.1.15,2013-04-13 05:40:00,
2013-04-12 23:50:00,26.9,16.7,29.89,WNW,286,2.0,3.0,65,0.00,,,0.01,0,Wunderground v.1.15,2013-04-13 05:50:00,